Location: Bou Ouachlou
(32.7770°N, 5.6009°W)
Time: 01:11:24
(UTC+00:00)

Daily predictions for brighter satellites

Satellite Brightness Start Highest point End
(mag) Time Altitude Azimuth Time Altitude Azimuth Time Altitude Azimuth
Cosmos 2227 Rocket 3.3 00:06:01 10° N 00:10:10 38° NNE 00:10:10 38° NNE
Cosmos 1980 Rocket 3.2 00:51:50 43° NNE 00:51:50 43° NNE 00:55:34 10° NNE
Lacrosse 4 Rocket 4.0 01:06:19 10° NNW 01:07:19 17° NNW 01:07:19 17° NNW
Cosmos 2263 Rocket 4.5 01:09:28 10° NNE 01:13:13 18° ENE 01:15:58 13° E
CZ-4C R/B 4.2 01:16:43 17° NW 01:17:25 17° NW 01:21:02 10° N
Cosmos 2297 Rocket 3.9 01:12:22 10° NW 01:14:46 23° NW 01:14:46 23° NW
Cosmos 2322 Rocket 3.4 01:29:42 33° E 01:29:42 33° E 01:33:47 10° NE
Cosmos 1697 Rocket 4.5 01:36:19 21° WNW 01:36:19 21° WNW 01:40:23 10° N
Cosmos 2181 Rocket 4.0 01:36:49 10° N 01:42:49 76° NW 01:42:49 76° NW
Resurs 1-4 Rocket 2.6 01:40:28 10° NNE 01:44:54 55° ENE 01:44:54 55° ENE
Cosmos 2154 Rocket 4.4 01:49:51 50° ESE 01:50:23 51° E 01:56:22 10° NNE
Cosmos 1375 Rocket 4.5 01:45:09 10° NNW 01:51:46 80° ENE 01:52:10 76° ESE
Cosmos 2227 Rocket 4.4 01:51:06 10° NW 01:51:58 13° WNW 01:51:58 13° WNW
SL-16 R/B 2.8 01:55:28 53° ESE 01:56:32 61° ENE 02:02:37 10° N
Cosmos 1241 Rocket 4.5 01:57:57 67° NW 01:57:57 67° NW 02:04:00 10° NNE
Cosmos 2298 Rocket 4.3 01:55:51 10° NNW 02:00:18 63° N 02:00:18 63° N
Meteor 1-27 4.3 01:55:49 10° N 02:01:18 69° ENE 02:01:18 69° ENE
SL-16 R/B 2.2 02:04:36 77° N 02:04:36 77° N 02:09:52 10° NNE
USA 215 3.1 02:15:21 64° S 02:16:17 74° SW 02:22:51 10° NW
CZ-2D R/B 2.3 02:11:40 10° N 02:16:21 62° NW 02:16:21 62° NW
Cosmos 2221 3.3 02:12:39 10° N 02:16:17 50° NE 02:16:17 50° NE
Cosmos 1315 Rocket 4.0 02:18:40 10° N 02:21:25 40° NNE 02:21:25 40° NNE
Nadezhda 3 Rocket 4.2 02:16:21 10° N 02:22:40 66° E 02:24:39 44° SSE
Cosmos 1842 Rocket 4.2 02:19:46 10° N 02:23:13 53° N 02:23:13 53° N
Cosmos 2058 3.6 02:27:00 54° NNE 02:27:00 54° NNE 02:30:20 10° N
Cosmos 2360 Rocket 2.4 02:25:44 55° SE 02:26:17 58° ESE 02:31:49 10° NNE
IRIDIUM 103 4.5 02:25:56 61° ESE 02:26:25 64° E 02:31:35 10° N
CBERS-1 4.0 02:21:21 10° NNE 02:26:29 72° ESE 02:26:39 71° ESE
STARLINK-1010 4.5 02:28:17 48° ENE 02:28:17 48° ENE 02:31:27 10° NE
STARLINK-1019 4.5 02:30:59 48° ENE 02:30:59 48° ENE 02:34:03 10° NE
Cosmos 1295 Rocket 4.4 02:32:33 62° S 02:33:45 88° W 02:40:04 10° N
Cosmos 1980 Rocket 4.4 02:33:35 12° WNW 02:34:32 13° NW 02:36:54 10° NNW
STARLINK-1012 4.2 02:35:47 54° NE 02:35:47 54° NE 02:39:03 10° NE
STARLINK-50 4.5 02:37:26 43° NNE 02:37:26 43° NNE 02:40:11 10° NE
Cosmos 2333 Rocket 3.9 02:37:36 19° SE 02:40:00 25° ESE 02:44:32 10° NE
STARLINK-71 4.3 02:41:45 49° N 02:41:45 49° N 02:45:06 10° NE
FALCON 9 R/B 3.9 02:36:00 23° W 02:41:14 68° SSW 03:09:15 10° ESE
Cosmos 2219 Rocket 3.9 02:41:35 18° SE 02:44:08 25° ESE 02:48:36 10° NE
CZ-4B R/B 3.9 02:39:13 10° N 02:44:16 49° WNW 02:44:30 49° W
IRIDIUM 106 4.1 02:44:10 72° SSW 02:44:41 83° W 02:49:55 10° N
STARLINK-1026 3.9 02:45:20 65° NNE 02:45:20 65° NNE 02:48:59 10° NE
STARLINK-1013 3.8 02:50:08 65° NNW 02:50:08 65° NNW 02:53:58 10° NE
ATLAS 5 CENTAUR R/B 4.0 02:53:38 10° ESE 02:54:32 11° ESE 02:55:27 10° E
SL-4 R/B 3.6 02:50:02 10° NNW 02:54:33 40° NE 02:58:50 10° ESE
ADEOS II 2.0 02:49:20 10° N 02:54:35 79° WNW 02:55:36 59° SW
Cosmos 2341 Rocket 3.9 02:52:36 46° S 02:54:42 85° W 03:01:04 10° N
STARLINK-1009 3.8 02:54:54 61° NW 02:54:54 61° NW 02:58:55 10° NE
Cosmos 1892 3.9 02:56:52 33° NW 02:56:52 33° NW 02:59:25 10° N
IRS-1D 3.7 02:52:15 10° N 02:57:20 55° WNW 02:58:00 51° WSW
Cosmos 2263 Rocket 2.2 02:52:02 10° NNW 02:57:25 52° WSW 02:57:35 51° WSW
IDEFIX/ARIANE 42P 4.0 02:53:26 10° NE 02:58:05 31° E 03:01:27 16° SSE
STARLINK-1015 3.9 02:59:41 54° NW 02:59:47 55° NW 03:03:51 10° NE
ARIANE 5 R/B 2.5 02:58:45 10° NNE 03:03:45 74° ESE 03:05:22 43° S
STARLINK-1016 4.1 03:04:27 48° WNW 03:04:46 49° NW 03:08:47 10° NNE
CZ-2D R/B 4.2 03:04:28 10° NNE 03:08:41 52° E 03:10:18 33° SSE
CZ-3A R/B 4.4 03:06:58 10° SSE 03:09:07 12° SE 03:12:12 10° ESE
USA 229 DEB 3.8 03:02:13 10° NW 03:09:38 72° WSW 03:17:17 10° SSE
USA 229 3.8 03:02:19 10° NW 03:09:44 73° WSW 03:17:24 10° SSE
STARLINK-1008 4.2 03:09:15 41° WNW 03:09:46 44° NW 03:13:44 10° NNE
NOSS 3-1 (C) 4.1 03:02:43 10° NW 03:10:41 66° WSW 03:19:29 10° SSE
IRS-1C 4.1 03:05:28 10° N 03:10:46 68° WNW 03:12:22 44° SW
Cosmos 2322 Rocket 3.4 03:11:31 24° W 03:12:47 26° WNW 03:17:25 10° N
SL-8 Rocket 3.9 03:11:29 34° SSW 03:14:24 80° W 03:20:42 10° N
STARLINK-1014 4.4 03:14:03 36° WNW 03:14:46 39° NW 03:18:39 10° NNE
Cosmos 2344 4.4 03:10:18 18° S 03:15:41 43° ESE 03:22:39 10° NE
Cosmos 2151 2.9 03:17:06 55° SW 03:17:51 69° W 03:22:08 10° N
Lacrosse 5 rocket 2.0 03:17:38 37° SSE 03:18:32 43° SE 03:22:18 10° NE
Cosmos 2218 Rocket 4.0 03:15:15 28° S 03:18:49 89° W 03:25:16 10° N
NOSS 3-1 (A) 4.2 03:10:53 10° NNW 03:18:56 87° WSW 03:27:53 10° SSE
H-2A R/B 3.5 03:15:59 10° SE 03:20:03 38° ENE 03:24:12 10° N
Cosmos 1766 Rocket 3.5 03:19:02 39° S 03:20:35 79° E 03:24:55 10° N
COBE Rocket 4.0 03:17:13 18° SSE 03:20:56 79° ENE 03:26:05 10° N
STARLINK-1032 4.5 03:21:04 33° SSE 03:22:04 39° SE 03:25:56 10° ENE
Cosmos 1408 3.7 03:23:51 29° WNW 03:23:51 29° WNW 03:26:41 10° NNW
Okean 3 Rocket 3.5 03:22:07 42° SSW 03:23:36 79° W 03:28:10 10° N
Resurs 1-4 Rocket 4.1 03:22:23 10° NW 03:24:58 14° WNW 03:25:59 13° WNW
STARLINK-1037 4.4 03:24:04 34° SSE 03:25:10 42° SE 03:29:04 10° ENE
Delta 2 Rocket 4.2 03:24:15 34° SW 03:26:15 45° S 03:31:55 10° ESE
STARLINK-1011 4.3 03:25:52 34° S 03:27:02 44° SE 03:30:59 10° ENE
Cosmos 1825 2.7 03:30:16 39° W 03:30:27 39° W 03:34:00 10° N
STARLINK-1036 4.1 03:30:39 34° S 03:31:59 49° SE 03:36:00 10° NE
GEOS 3 Rocket 3.5 03:28:10 10° SSE 03:33:16 68° WSW 03:38:29 10° NW
Spot 4 Rocket 4.0 03:30:23 10° N 03:35:30 75° WNW 03:38:21 27° SSW
STARLINK-1444 2.6 03:36:00 63° NE 03:36:00 63° NE 03:38:26 10° SE
SL-08 R/B 3.3 03:33:59 27° S 03:36:21 59° WSW 03:40:55 10° NNW
STARLINK-1452 2.5 03:36:39 64° ENE 03:36:39 64° ENE 03:39:03 10° SE
STARLINK-1044 3.9 03:35:26 34° SSW 03:36:57 56° SE 03:41:01 10° NE
STARLINK-1392 2.7 03:37:32 56° E 03:37:32 56° E 03:39:40 10° SE
STARLINK-1399 2.6 03:37:33 59° E 03:37:33 59° E 03:39:45 10° SE
STARLINK-1393 2.6 03:37:35 59° E 03:37:35 59° E 03:39:47 10° SE
STARLINK-1394 2.6 03:37:36 59° E 03:37:36 59° E 03:39:49 10° SE
STARLINK-1395 2.7 03:37:43 56° E 03:37:43 56° E 03:39:52 10° SE
STARLINK-1397 2.6 03:37:39 60° E 03:37:39 60° E 03:39:53 10° SE
STARLINK-1414 2.6 03:37:42 58° E 03:37:42 58° E 03:39:53 10° SE
STARLINK-1396 2.6 03:37:40 60° E 03:37:40 60° E 03:39:53 10° SE
STARLINK-1408 2.6 03:37:46 57° E 03:37:46 57° E 03:39:55 10° SE
STARLINK-1404 2.6 03:37:45 62° E 03:37:45 62° E 03:40:00 10° SE
STARLINK-1416 2.6 03:37:46 60° E 03:37:46 60° E 03:40:00 10° SE
STARLINK-1406 2.6 03:37:52 57° E 03:37:52 57° E 03:40:02 10° SE
STARLINK-1415 2.5 03:37:45 63° E 03:37:45 63° E 03:40:03 10° SE
STARLINK-1401 2.5 03:37:48 64° E 03:37:48 64° E 03:40:07 10° SE
STARLINK-1450 2.5 03:37:47 64° ENE 03:37:47 64° ENE 03:40:07 10° SE
STARLINK-1417 2.5 03:37:51 64° ENE 03:37:51 64° ENE 03:40:10 10° SE
STARLINK-1402 2.5 03:37:53 64° E 03:37:53 64° E 03:40:11 10° SE
STARLINK-1413 2.5 03:37:52 64° ENE 03:37:52 64° ENE 03:40:11 10° SE
STARLINK-1419 2.5 03:37:54 63° E 03:37:54 63° E 03:40:11 10° SE
STARLINK-1422 2.5 03:37:59 65° ENE 03:37:59 65° ENE 03:40:18 10° SE
STARLINK-1453 2.5 03:37:58 66° ENE 03:37:58 66° ENE 03:40:20 10° SE
STARLINK-1398 2.4 03:37:58 68° ENE 03:37:58 68° ENE 03:40:23 10° SE
STARLINK-1420 2.5 03:38:02 66° ENE 03:38:02 66° ENE 03:40:23 10° SE
STARLINK-1440 2.5 03:38:05 66° ENE 03:38:05 66° ENE 03:40:26 10° SE
STARLINK-1460 2.5 03:38:04 67° ENE 03:38:04 67° ENE 03:40:26 10° SE
STARLINK-1410 2.5 03:38:09 66° ENE 03:38:09 66° ENE 03:40:30 10° SE
STARLINK-1436 (VISORSAT) 2.4 03:38:02 69° NE 03:38:02 69° NE 03:40:30 10° SE
STARLINK-1423 2.5 03:38:11 65° E 03:38:11 65° E 03:40:30 10° SE
STARLINK-1421 2.5 03:38:11 65° ENE 03:38:11 65° ENE 03:40:30 10° SE
STARLINK-1400 2.4 03:38:10 67° ENE 03:38:10 67° ENE 03:40:31 10° SE
STARLINK-1454 2.4 03:38:11 67° ENE 03:38:11 67° ENE 03:40:33 10° SE
STARLINK-1458 2.4 03:38:14 67° ENE 03:38:14 67° ENE 03:40:36 10° SE
STARLINK-1445 2.4 03:38:15 69° ENE 03:38:15 69° ENE 03:40:39 10° SE
STARLINK-1405 2.5 03:38:23 63° E 03:38:23 63° E 03:40:39 10° SE
STARLINK-1407 2.4 03:38:17 68° ENE 03:38:17 68° ENE 03:40:40 10° SE
STARLINK-1446 2.4 03:38:17 69° ENE 03:38:17 69° ENE 03:40:42 10° SE
STARLINK-1370 2.4 03:38:20 68° ENE 03:38:20 68° ENE 03:40:43 10° SE
STARLINK-1439 2.5 03:38:27 63° E 03:38:27 63° E 03:40:43 10° SE
STARLINK-1409 2.4 03:38:23 68° ENE 03:38:23 68° ENE 03:40:45 10° SE
STARLINK-1456 2.4 03:38:22 68° ENE 03:38:22 68° ENE 03:40:46 10° SE
STARLINK-1457 2.4 03:38:22 68° ENE 03:38:22 68° ENE 03:40:46 10° SE
STARLINK-1451 2.4 03:38:23 68° ENE 03:38:23 68° ENE 03:40:46 10° SE
STARLINK-1455 2.4 03:38:24 68° ENE 03:38:24 68° ENE 03:40:47 10° SE
STARLINK-1447 2.4 03:38:22 69° ENE 03:38:22 69° ENE 03:40:47 10° SE
STARLINK-1437 2.4 03:38:25 69° ENE 03:38:25 69° ENE 03:40:50 10° SE
STARLINK-1441 2.4 03:38:24 69° ENE 03:38:24 69° ENE 03:40:50 10° SE
STARLINK-1443 2.4 03:38:26 70° NE 03:38:26 70° NE 03:40:54 10° SE
STARLINK-1418 2.4 03:38:29 69° ENE 03:38:29 69° ENE 03:40:54 10° SE
STARLINK-1351 2.4 03:38:29 70° ENE 03:38:29 70° ENE 03:40:55 10° SE
STARLINK-1403 2.4 03:38:29 70° ENE 03:38:29 70° ENE 03:40:55 10° SE
STARLINK-1434 2.4 03:38:29 70° NE 03:38:29 70° NE 03:40:56 10° SE
STARLINK-1442 2.4 03:38:30 70° NE 03:38:30 70° NE 03:40:57 10° SE
STARLINK-1433 2.4 03:38:33 70° ENE 03:38:33 70° ENE 03:40:59 10° SE
STARLINK-1448 2.4 03:38:32 70° NE 03:38:32 70° NE 03:40:59 10° SE
STARLINK-1449 2.4 03:38:34 70° NE 03:38:34 70° NE 03:41:02 10° SE
STARLINK-1438 2.4 03:38:40 69° ENE 03:38:40 69° ENE 03:41:04 10° SE
STARLINK-1411 2.4 03:38:45 71° ENE 03:38:45 71° ENE 03:41:12 10° SE
STARLINK-1412 2.4 03:38:45 71° NE 03:38:45 71° NE 03:41:12 10° SE
SL-16 R/B 4.0 03:40:34 16° W 03:40:34 16° W 03:44:09 10° WNW
Cosmos 1818 3.8 03:37:21 23° S 03:40:45 64° ESE 03:46:08 10° NE
Cosmos 2237 Rocket 4.0 03:36:18 10° SSE 03:40:53 26° ESE 03:45:29 10° NE
STARLINK-1047 3.8 03:40:13 33° SSW 03:41:55 64° SE 03:46:01 10° NE
Cosmos 1538 Rocket 4.3 03:39:44 29° SW 03:42:16 53° WNW 03:47:32 10° N
CZ-4C R/B 3.5 03:41:12 10° SSE 03:44:46 62° ENE 03:48:22 10° N
Meteor 2-12 Rocket 4.5 03:41:21 23° SSW 03:45:04 59° W 03:51:03 10° N
BREEZE M DEB (TANK) 4.4 03:42:49 10° WNW 03:46:42 46° SW 03:59:34 10° SSE
SL-16 R/B 4.4 03:48:07 10° WNW 03:49:03 10° NW 03:49:59 10° NW
Cosmos 1339 Rocket 4.5 03:44:10 10° NNW 03:50:12 61° W 03:56:18 10° S
STARLINK-1059 3.6 03:49:47 28° SW 03:51:52 81° SE 03:56:00 10° NE
Cosmos 1844 Rocket 2.7 03:46:26 10° NNW 03:52:02 86° ENE 03:57:36 10° SSE
Cosmos 1340 3.4 03:49:05 12° S 03:52:23 52° E 03:56:03 10° NNE
STARLINK-60 3.1 03:49:39 10° NW 03:52:44 46° SW 03:55:49 10° SSE
COSMOS 2428 2.7 03:48:51 20° SSW 03:52:49 82° WNW 03:58:30 10° NNE
Cosmos 1743 Rocket 4.4 03:48:59 10° SSE 03:53:14 50° E 03:57:27 10° NNE
MSX 3.9 03:48:59 10° NNE 03:54:45 79° ESE 04:00:28 10° S
STARLINK-1057 3.6 03:54:34 26° SW 03:56:50 90° N 04:00:59 10° NE
STARLINK-1034 3.6 03:59:21 24° SW 04:01:49 80° NW 04:05:57 10° NE
STARLINK-1068 3.7 04:04:08 21° SW 04:06:47 72° NW 04:10:55 10° NE
Cosmos 1933 3.3 04:06:34 10° NNW 04:10:33 67° W 04:14:31 10° S
Cosmos 2360 Rocket 4.0 04:07:30 11° W 04:10:39 17° WNW 04:14:10 10° NNW
STARLINK-1027 3.8 04:08:56 19° WSW 04:11:47 64° NW 04:15:53 10° NE
Cosmos 2112 Rocket 4.1 04:10:08 10° S 04:15:22 80° ESE 04:20:40 10° NNE
Cosmos 1328 Rocket 3.7 04:11:06 10° NNW 04:15:22 53° W 04:19:34 10° S
CZ-2C R/B 3.0 04:10:54 10° NNE 04:16:02 62° E 04:21:06 10° S
STARLINK-1060 3.9 04:13:42 17° WSW 04:16:44 57° NW 04:20:49 10° NE
Meteor 1-28 Rocket 4.5 04:15:31 17° SW 04:17:08 22° W 04:20:05 10° NW
SWARM C 4.4 04:14:48 10° N 04:18:07 74° W 04:21:26 10° S
SWARM A 4.2 04:14:55 10° N 04:18:13 63° W 04:21:30 10° S
Landsat 5 3.8 04:15:24 10° S 04:19:48 53° W 04:24:11 10° NNW
PSLV R/B 3.4 04:16:58 10° N 04:21:09 81° WNW 04:25:20 10° SSW
STARLINK-1030 4.1 04:18:28 15° WSW 04:21:43 51° NW 04:25:45 10° NE
Cosmos 1934 Rocket 4.4 04:17:41 10° S 04:23:41 66° E 04:29:39 10° NNE
Cosmos 2333 Rocket 3.0 04:19:37 14° SW 04:24:00 35° WNW 04:29:10 10° N
STARLINK-29 3.0 04:22:32 10° NW 04:25:37 50° SW 04:28:40 10° SSE
Cosmos 1821 Rocket 4.1 04:19:28 10° SSW 04:25:47 68° W 04:32:04 10° N
ERS-2 3.5 04:24:14 13° SW 04:26:22 20° W 04:29:08 10° NW
STARLINK-1020 4.2 04:23:17 13° WSW 04:26:44 46° NW 04:30:44 10° NNE
NOSS 0 Rocket 3.9 04:21:10 10° SSW 04:27:20 85° WNW 04:33:30 10° NNE
Cosmos 2219 Rocket 3.0 04:23:18 13° SW 04:27:49 35° WNW 04:32:54 10° N
USA 32 4.0 04:24:16 10° S 04:29:27 68° W 04:34:40 10° N
STARLINK-1052 4.4 04:28:03 11° WSW 04:31:43 41° NW 04:35:39 10° NNE
SAR-Lupe-4 3.5 04:28:48 10° S 04:32:22 77° WSW 04:35:57 10° NNW
Cosmos 2228 Rocket 3.5 04:28:40 10° N 04:33:11 69° E 04:37:43 10° SSE
Cosmos 1782 2.9 04:29:26 10° N 04:33:27 85° E 04:37:24 10° S
Cosmos 1606 4.0 04:30:40 10° NW 04:33:40 23° W 04:36:41 10° SW
SL-4 R/B 3.1 04:30:11 10° WNW 04:34:05 27° SW 04:37:48 10° S
USA 234 4.0 04:28:14 10° NE 04:34:31 48° SE 04:40:45 10° SSW
Cosmos 1500 Rocket 3.9 04:32:19 10° SSW 04:36:37 49° W 04:40:58 10° N
Cosmos 1862 3.8 04:32:44 10° S 04:36:39 62° E 04:40:36 10° NNE
IDEFIX/ARIANE 42P 3.8 04:33:13 10° NNW 04:37:28 25° WNW 04:41:41 10° WSW
Cosmos 1727 Rocket 4.5 04:32:46 10° NNW 04:38:25 39° W 04:44:05 10° SSW
ATLAS 5 CENTAUR R/B 2.0 04:34:39 10° SW 04:38:31 44° NW 04:42:41 10° NNE
STARLINK-1320 4.5 04:36:42 10° NNW 04:39:40 40° NE 04:42:37 10° ESE
Meteor 1-26 Rocket 4.5 04:34:10 10° NNW 04:39:57 58° W 04:45:49 10° S
STARLINK-1322 4.5 04:37:04 10° NNW 04:40:01 40° NE 04:42:59 10° ESE
STARLINK-1324 4.4 04:37:23 10° NNW 04:40:20 40° NE 04:43:18 10° ESE
STARLINK-1294 4.4 04:37:40 10° NNW 04:40:40 41° NE 04:43:39 10° ESE
STARLINK-1261 4.4 04:38:03 10° NNW 04:41:02 41° NE 04:44:00 10° ESE
STARLINK-1325 4.4 04:38:24 10° NNW 04:41:23 42° NE 04:44:21 10° ESE
STARLINK-1333 4.3 04:38:46 10° NNW 04:41:45 42° NE 04:44:43 10° ESE
STARLINK-1334 4.3 04:39:03 10° NNW 04:42:02 42° NE 04:45:00 10° ESE
STARLINK-1326 4.3 04:39:22 10° NNW 04:42:21 43° NE 04:45:20 10° ESE
STARLINK-1323 4.3 04:39:45 10° NNW 04:42:45 43° NE 04:45:44 10° ESE
STARLINK-1349 4.3 04:40:03 10° NNW 04:43:03 43° NE 04:46:02 10° ESE
STARLINK-1336 4.2 04:40:22 10° NNW 04:43:21 44° NE 04:46:21 10° ESE
Cosmos 158 Rocket 4.2 04:38:31 10° SSW 04:43:26 51° WNW 04:48:15 10° N
STARLINK-1331 4.2 04:40:44 10° NNW 04:43:45 44° NE 04:46:44 10° ESE
STARLINK-1344 4.2 04:41:02 10° NNW 04:44:03 45° NE 04:47:02 10° ESE
STARLINK-1343 4.2 04:41:26 10° NNW 04:44:26 45° NE 04:47:26 10° ESE
STARLINK-1346 4.2 04:41:41 10° NNW 04:44:45 46° NE 04:47:47 10° ESE
STARLINK-1328 4.1 04:42:08 10° NNW 04:45:09 46° NE 04:48:09 10° ESE
STARLINK-1354 4.1 04:42:25 10° NNW 04:45:27 47° NE 04:48:26 10° ESE
STARLINK-1347 4.1 04:42:42 10° NNW 04:45:43 47° NE 04:48:44 10° ESE
STARLINK-1357 4.1 04:43:08 10° NNW 04:46:10 48° NE 04:49:10 10° ESE
STARLINK-1335 4.0 04:43:24 10° NNW 04:46:27 48° NE 04:49:27 10° ESE
CZ-4B R/B 1.1 04:43:45 10° S 04:46:46 66° WSW 04:49:52 10° NNW
STARLINK-1327 4.0 04:43:46 10° NNW 04:46:47 49° NE 04:49:49 10° ESE
STARLINK-1340 4.0 04:44:03 10° NNW 04:47:05 49° NE 04:50:06 10° ESE
STARLINK-1356 4.0 04:44:26 10° NNW 04:47:28 50° NE 04:50:30 10° ESE
STARLINK-1345 3.9 04:44:44 10° NNW 04:47:47 50° NE 04:50:49 10° ESE
Cosmos 1633 3.7 04:44:49 10° SW 04:47:52 26° W 04:50:58 10° NNW
SAR-Lupe-1 4.3 04:44:34 10° S 04:48:00 48° W 04:51:28 10° NNW
STARLINK-1355 3.9 04:45:06 10° NNW 04:48:09 51° NE 04:51:11 10° ESE
STARLINK-1038 4.4 04:44:21 10° SSW 04:48:18 46° SE 04:52:17 10° NE
STARLINK-1321 3.9 04:45:27 10° NW 04:48:30 51° NE 04:51:32 10° ESE
Cosmos 1805 Rocket 3.6 04:44:17 10° S 04:48:40 84° W 04:53:04 10° N
Centaur D-1A AC-31 3.5 04:13:09 10° W 04:48:43 53° SSW 04:54:21 10° SE
STARLINK-1358 3.9 04:45:50 10° NW 04:48:53 52° NE 04:51:55 10° ESE
STARLINK-1332 3.8 04:46:07 10° NW 04:49:10 52° NE 04:52:12 10° ESE
STARLINK-1348 3.8 04:46:27 10° NW 04:49:30 53° NE 04:52:33 10° ESE
STARLINK-1330 3.8 04:46:46 10° NW 04:49:50 53° NE 04:52:52 10° ESE
ADEOS 3.6 04:45:50 10° N 04:51:01 68° WNW 04:56:11 10° SSW
Cosmos 1605 Rocket 4.4 04:45:36 10° S 04:51:51 72° E 04:58:14 10° N
CZ-3 R/B 3.5 04:20:37 10° WSW 04:54:25 70° S 05:02:15 10° E
